Powrót do katalogu

ATLAS 5 CENTAUR DEB

AktywnyHEO
NORAD 44106·DEBRIS·🇺🇸 United States

Wystrzelony Sep 17, 2014 z Cape Canaveral Space Force Station

Loading…

Następne Przeloty (najbliższe 24 godziny)

TLE

ŚwieżeSource: Space-Track

Epoka: Sep 9, 2026, 08:05 UTC

1 44106U 14055CB  26252.33718625 -.00000104  00000-0  00000-0 0  9998
2 44106  20.2390 135.0133 4783821 179.8356 180.3994  1.84989577 51302

Śledź ATLAS 5 CENTAUR DEB w czasie rzeczywistym z AllMySat

Download on the App Store